Time,TemperatureF,DewpointF,PressureIn,WindDirection,WindDirectionDegrees,WindSpeedMPH,WindSpeedGustMPH,Humidity,HourlyPrecipIn,Conditions,Clouds,dailyrainin,SoftwareType,DateUTC
2013-08-28 13:14:00,-999.0,-99.9,29.87,WSW,254,8.0,12.0,-999,-99.99,,,-99.99,,2013-08-28 17:14:00,
2013-08-28 13:24:00,-999.0,-99.9,29.87,WSW,256,8.0,11.0,-999,-99.99,,,-99.99,,2013-08-28 17:24:00,
2013-08-28 14:12:00,-999.0,-99.9,29.87,NW,304,5.0,7.0,-999,-99.99,,,-99.99,,2013-08-28 18:12:00,
2013-08-28 14:42:00,-999.0,-99.9,29.86,WNW,291,7.0,10.0,-999,-99.99,,,-99.99,,2013-08-28 18:42:00,
2013-08-28 14:53:00,77.0,-99.9,29.86,North,-999,-999.0,-999.0,-999,-99.99,,,-99.99,,2013-08-28 18:53:00,
2013-08-28 15:22:00,-999.0,-99.9,29.86,West,264,6.0,9.0,-999,-99.99,,,-99.99,,2013-08-28 19:22:00,
2013-08-28 15:53:00,-999.0,-99.9,29.85,SW,235,6.0,8.0,-999,-99.99,,,-99.99,,2013-08-28 19:53:00,
2013-08-28 17:01:00,-999.0,-99.9,29.83,SW,229,4.0,9.0,-999,-99.99,,,-99.99,,2013-08-28 21:01:00,
2013-08-28 17:22:00,-999.0,-99.9,29.83,West,278,7.0,9.0,-999,-99.99,,,-99.99,,2013-08-28 21:22:00,
2013-08-28 17:35:00,-999.0,-99.9,29.83,SW,233,1.0,3.0,-999,-99.99,,,-99.99,,2013-08-28 21:35:00,
2013-08-28 17:58:00,-999.0,-99.9,29.83,WNW,284,3.0,6.0,-999,-99.99,,,-99.99,,2013-08-28 21:58:00,
2013-08-28 18:34:00,-999.0,-99.9,29.82,SSW,203,3.0,5.0,-999,-99.99,,,-99.99,,2013-08-28 22:34:00,
2013-08-28 18:54:00,-999.0,-99.9,29.82,South,181,6.0,7.0,-999,-99.99,,,-99.99,,2013-08-28 22:54:00,
2013-08-28 19:03:00,-999.0,-99.9,29.82,South,180,4.0,5.0,-999,-99.99,,,-99.99,,2013-08-28 23:03:00,
2013-08-28 19:42:00,-999.0,-99.9,29.82,South,177,6.0,7.0,-999,-99.99,,,-99.99,,2013-08-28 23:42:00,
2013-08-28 19:53:00,-999.0,-99.9,29.82,SSW,192,4.0,6.0,-999,-99.99,,,-99.99,,2013-08-28 23:53:00,
2013-08-28 20:12:00,-999.0,-99.9,29.82,ESE,110,2.0,3.0,-999,-99.99,,,-99.99,,2013-08-29 00:12:00,
2013-08-28 21:13:00,-999.0,-99.9,29.84,ENE,74,1.0,3.0,-999,-99.99,,,-99.99,,2013-08-29 01:13:00,
2013-08-28 21:22:00,-999.0,-99.9,29.84,East,99,2.0,4.0,-999,-99.99,,,-99.99,,2013-08-29 01:22:00,
2013-08-28 21:32:00,-999.0,-99.9,29.84,ESE,111,2.0,3.0,-999,-99.99,,,-99.99,,2013-08-29 01:32:00,
2013-08-28 21:42:00,-999.0,-99.9,29.84,ESE,117,2.0,3.0,-999,-99.99,,,-99.99,,2013-08-29 01:42:00,
2013-08-28 21:53:00,-999.0,-99.9,29.84,ESE,107,2.0,3.0,-999,-99.99,,,-99.99,,2013-08-29 01:53:00,
2013-08-28 22:03:00,-999.0,-99.9,29.84,East,83,1.0,3.0,-999,-99.99,,,-99.99,,2013-08-29 02:03:00,
2013-08-28 22:12:00,-999.0,-99.9,29.84,SE,132,1.0,4.0,-999,-99.99,,,-99.99,,2013-08-29 02:12:00,
2013-08-28 22:22:00,-999.0,-99.9,29.84,East,79,2.0,3.0,-999,-99.99,,,-99.99,,2013-08-29 02:22:00,
2013-08-28 23:02:00,-999.0,-99.9,29.84,North,9,3.0,4.0,-999,-99.99,,,-99.99,,2013-08-29 03:02:00,
2013-08-28 23:37:00,-999.0,-99.9,29.82,ENE,64,1.0,3.0,-999,-99.99,,,-99.99,,2013-08-29 03:37:00,
2013-08-28 23:57:00,-999.0,-99.9,29.82,East,99,1.0,3.0,-999,-99.99,,,-99.99,,2013-08-29 03:57:00,